DG5TKE Weather Reports


time (UTC)temp
C
wind
direction
speed
KPH
gust
KPH
rain 1hr
cm
rain 24hr
cm
rain mn
cm
humidity
%
barometer
mb
20190424041000 11 0 0.0 0.0 0.00 0.00 0.00 76 1009.4
20190424035959 12 0 0.0 0.0 0.00 0.00 0.00 74 1009.4
20190424032000 12 0 0.0 1.6 0.00 0.00 0.00 72 1009.1
20190424030959 13 137 1.6 9.7 0.00 0.00 0.00 71 1009.1
20190424024000 13 0 0.0 3.2 0.00 0.00 0.00 70 1009.1
20190424022000 13 0 0.0 4.8 0.00 0.00 0.00 70 1009.1
20190424021000 13 103 1.6 6.4 0.00 0.00 0.00 69 1009.1
20190424020000 13 0 0.0 6.4 0.00 0.00 0.00 69 1009.0
20190424014959 13 74 1.6 4.8 0.00 0.00 0.00 69 1009.1
20190424014000 13 0 0.0 4.8 0.00 0.00 0.00 69 1009.1
20190424011959 13 48 1.6 4.8 0.00 0.00 0.00 69 1009.1
20190424011000 13 54 1.6 4.8 0.00 0.00 0.00 69 1009.0
20190424010000 13 68 1.6 6.4 0.00 0.00 0.00 69 1009.0
20190424005000 13 54 3.2 6.4 0.00 0.00 0.00 69 1009.0
20190424001000 13 52 1.6 4.8 0.00 0.00 0.00 69 1009.2
20190424000000 13 0 0.0 1.6 0.00 0.00 0.00 69 1009.2
20190423235000 13 0 0.0 3.2 0.00 0.00 0.00 69 1009.2
20190423233001 14 0 0.0 1.6 0.00 0.00 0.00 68 1009.1
20190423232000 14 0 0.0 3.2 0.00 0.00 0.00 67 1009.1
20190423230001 14 43 3.2 9.7 0.00 0.00 0.00 67 1009.1
20190423225000 14 50 3.2 8.0 0.00 0.00 0.00 67 1009.1
20190423224000 14 66 3.2 9.7 0.00 0.00 0.00 67 1009.0
20190423223000 14 60 3.2 14.5 0.00 0.00 0.00 66 1009.0
20190423213000 14 65 3.2 12.9 0.00 0.00 0.00 65 1008.8
20190423211000 14 111 4.8 12.9 0.00 0.00 0.00 64 1008.9
20190423210000 14 94 1.6 6.4 0.00 0.00 0.00 64 1008.8
20190423204001 15 79 3.2 12.9 0.00 0.00 0.00 63 1008.7
20190423203000 15 161 1.6 12.9 0.00 0.00 0.00 62 1008.8
20190423200000 15 61 1.6 8.0 0.00 0.00 0.00 61 1008.9
20190423195000 15 113 1.6 4.8 0.00 0.00 0.00 61 1008.9
20190423194001 15 108 1.6 8.0 0.00 0.00 0.00 61 1008.8
20190423192001 15 0 0.0 3.2 0.00 0.00 0.00 59 1008.8
20190423191000 16 62 3.2 8.0 0.00 0.00 0.00 58 1008.7
20190423185001 16 74 1.6 9.7 0.00 0.00 0.00 56 1008.5
20190423184000 16 137 3.2 9.7 0.00 0.00 0.00 55 1008.4
20190423183000 17 109 3.2 11.3 0.00 0.00 0.00 55 1008.4
20190423182001 17 142 3.2 11.3 0.00 0.00 0.00 54 1008.3
20190423181001 17 131 4.8 9.7 0.00 0.00 0.00 53 1008.3
20190423180000 17 140 4.8 16.1 0.00 0.00 0.00 52 1008.2
20190423175001 17 140 6.4 19.3 0.00 0.00 0.00 52 1008.1
20190423165000 20 51 8.0 22.5 0.00 0.00 0.00 48 1007.4
20190423164006 20 65 6.4 14.5 0.00 0.00 0.00 47 1007.5
20190423162000 20 53 6.4 17.7 0.00 0.00 0.00 46 1007.5
20190423160001 20 59 6.4 17.7 0.00 0.00 0.00 45 1007.4
20190423155000 20 62 4.8 14.5 0.00 0.00 0.00 45 1007.5
20190423145000 20 56 6.4 20.9 0.00 0.00 0.00 45 1007.6
20190423143001 20 47 9.7 27.4 0.00 0.00 0.00 44 1007.7
20190423135001 20 51 11.3 25.7 0.00 0.00 0.00 45 1008.2
20190423133000 21 63 9.7 22.5 0.00 0.00 0.00 45 1008.4
20190423131001 20 37 6.4 29.0 0.00 0.00 0.00 47 1008.5
20190423122007 20 57 8.0 19.3 0.00 0.00 0.00 47 1008.9
20190423121001 20 63 8.0 22.5 0.00 0.00 0.00 46 1008.9
20190423120002 20 137 6.4 22.5 0.00 0.00 0.00 47 1008.9
20190423114001 19 87 6.4 14.5 0.00 0.00 0.00 48 1009.2
20190423113001 20 47 8.0 20.9 0.00 0.00 0.00 48 1009.3
20190423111001 18 77 8.0 25.7 0.00 0.00 0.00 48 1009.4
20190423110001 18 65 8.0 22.5 0.00 0.00 0.00 48 1009.6
20190423104001 18 56 9.7 22.5 0.00 0.00 0.00 48 1009.6
20190423101003 18 71 8.0 20.9 0.00 0.00 0.00 50 1009.8
20190423100001 18 42 6.4 17.7 0.00 0.00 0.00 50 1009.8
20190423095006 18 50 8.0 19.3 0.00 0.00 0.00 50 1009.9
20190423091001 17 55 9.7 24.1 0.00 0.00 0.00 51 1010.3
20190423090001 17 50 8.0 25.7 0.00 0.00 0.00 52 1010.3
20190423085002 17 96 6.4 17.7 0.00 0.00 0.00 53 1010.4
20190423083001 16 39 8.0 25.7 0.00 0.00 0.00 53 1010.5
20190423082002 16 45 4.8 16.1 0.00 0.00 0.00 59 1010.6
20190423075002 15 20 6.4 16.1 0.00 0.00 0.00 58 1011.0
20190423074001 14 28 8.0 19.3 0.00 0.00 0.00 61 1010.9
20190423071001 13 34 6.4 14.5 0.00 0.00 0.00 62 1011.3
20190423062001 11 51 4.8 12.9 0.00 0.00 0.00 66 1011.8
20190423061001 11 39 4.8 12.9 0.00 0.00 0.00 67 1011.9
20190423060008 11 50 4.8 16.1 0.00 0.00 0.00 67 1011.9
20190423055002 10 39 1.6 8.0 0.00 0.00 0.00 68 1011.9
20190423054001 10 23 4.8 12.9 0.00 0.00 0.00 69 1011.9
20190423051003 9 13 4.8 12.9 0.00 0.00 0.00 72 1012.2
20190423050002 8 355 3.2 8.0 0.00 0.00 0.00 73 1012.4
20190423045001 8 31 1.6 6.4 0.00 0.00 0.00 73 1012.4
20190423044002 8 21 3.2 11.3 0.00 0.00 0.00 73 1012.4
20190423043002 8 20 4.8 12.9 0.00 0.00 0.00 72 1012.5